TimeEST,TemperatureF,Dew PointF,Humidity,Sea Level PressureIn,VisibilityMPH,Wind Direction,Wind SpeedMPH,Gust SpeedMPH,PrecipitationIn,Events,Conditions,WindDirDegrees,DateUTC
12:15 AM,39.2,39.0,99,29.73,5.0,Calm,Calm,-,0.01,Rain,Rain,0,2014-01-06 05:15:00
12:35 AM,38.8,38.8,100,29.72,7.0,Calm,Calm,-,0.01,,Overcast,0,2014-01-06 05:35:00
12:55 AM,38.7,38.7,100,29.70,4.0,Calm,Calm,-,0.01,,Overcast,0,2014-01-06 05:55:00
1:15 AM,38.7,38.7,100,29.69,4.0,Calm,Calm,-,N/A,,Drizzle,0,2014-01-06 06:15:00
1:35 AM,38.7,38.7,100,29.68,2.0,Calm,Calm,-,N/A,,Light Drizzle,0,2014-01-06 06:35:00
1:55 AM,38.7,38.7,100,29.68,1.8,Calm,Calm,-,N/A,,Drizzle,0,2014-01-06 06:55:00
2:15 AM,38.8,38.8,100,29.68,1.5,SSW,3.5,-,0.01,,Heavy Drizzle,200,2014-01-06 07:15:00
2:35 AM,39.2,39.2,100,29.67,2.0,South,3.5,-,0.01,,Heavy Drizzle,190,2014-01-06 07:35:00
2:55 AM,39.7,39.6,99,29.67,2.0,SSW,4.6,-,0.01,,Drizzle,210,2014-01-06 07:55:00
3:35 AM,40.1,40.1,100,29.66,5.0,SW,3.5,-,0.02,Rain,Rain,230,2014-01-06 08:35:00
3:55 AM,40.6,40.5,99,29.66,7.0,SSW,6.9,-,0.03,Rain,Rain,200,2014-01-06 08:55:00
4:15 AM,41.2,41.0,99,29.65,10.0,SW,6.9,-,N/A,,Overcast,220,2014-01-06 09:15:00
4:35 AM,41.4,41.0,99,29.66,10.0,WSW,3.5,-,N/A,,Overcast,250,2014-01-06 09:35:00
4:55 AM,41.2,41.0,99,29.67,10.0,West,5.8,-,N/A,,Overcast,260,2014-01-06 09:55:00
5:15 AM,41.2,40.6,98,29.67,10.0,West,4.6,-,N/A,,Overcast,260,2014-01-06 10:15:00
5:35 AM,41.2,40.6,98,29.68,10.0,WSW,4.6,-,N/A,,Overcast,250,2014-01-06 10:35:00
5:55 AM,41.0,40.5,98,29.67,7.0,West,4.6,-,N/A,,Drizzle,270,2014-01-06 10:55:00
6:15 AM,40.6,40.1,98,29.67,7.0,West,3.5,-,N/A,,Drizzle,280,2014-01-06 11:15:00
6:35 AM,40.5,40.1,99,29.68,5.0,Calm,Calm,-,N/A,Rain,Light Rain,0,2014-01-06 11:35:00
6:55 AM,40.3,39.9,99,29.69,5.0,West,3.5,-,N/A,,Overcast,280,2014-01-06 11:55:00
7:15 AM,39.7,39.4,99,29.70,5.0,WNW,3.5,-,N/A,,Overcast,300,2014-01-06 12:15:00
7:35 AM,39.4,39.2,99,29.72,5.0,WNW,4.6,-,N/A,,Overcast,300,2014-01-06 12:35:00
7:55 AM,36.7,32.0,83,29.74,10.0,WNW,10.4,16.1,N/A,,Scattered Clouds,300,2014-01-06 12:55:00
8:15 AM,36.0,30.4,80,29.76,10.0,NW,10.4,16.1,N/A,,Clear,310,2014-01-06 13:15:00
8:35 AM,35.8,28.4,75,29.78,10.0,NW,11.5,21.9,N/A,,Clear,310,2014-01-06 13:35:00
8:55 AM,36.5,28.0,71,29.79,10.0,NW,12.7,16.1,N/A,,Clear,320,2014-01-06 13:55:00
9:15 AM,36.5,27.3,69,29.81,10.0,WNW,13.8,20.7,N/A,,Clear,300,2014-01-06 14:15:00
9:35 AM,36.7,27.0,68,29.83,10.0,NW,11.5,-,N/A,,Clear,320,2014-01-06 14:35:00
9:55 AM,35.4,24.6,65,29.84,10.0,NW,12.7,23.0,N/A,,Clear,310,2014-01-06 14:55:00
10:15 AM,35.6,24.3,63,29.84,10.0,NW,15.0,19.6,N/A,,Clear,310,2014-01-06 15:15:00
10:35 AM,35.1,22.3,60,29.85,10.0,WNW,12.7,21.9,N/A,,Clear,300,2014-01-06 15:35:00
10:55 AM,35.1,21.6,58,29.86,10.0,WNW,16.1,23.0,N/A,,Clear,290,2014-01-06 15:55:00
11:15 AM,35.2,21.6,58,29.86,10.0,WNW,11.5,23.0,N/A,,Clear,300,2014-01-06 16:15:00
11:35 AM,35.1,21.2,57,29.86,10.0,WNW,12.7,-,N/A,,Clear,300,2014-01-06 16:35:00
11:55 AM,37.2,22.5,55,29.85,10.0,WNW,13.8,18.4,N/A,,Clear,300,2014-01-06 16:55:00
12:15 PM,36.5,19.4,50,29.85,10.0,NW,12.7,17.3,N/A,,Clear,310,2014-01-06 17:15:00
12:35 PM,37.0,20.1,50,29.84,10.0,WNW,9.2,20.7,N/A,,Clear,290,2014-01-06 17:35:00
12:55 PM,38.1,21.6,51,29.84,10.0,WNW,11.5,18.4,N/A,,Clear,290,2014-01-06 17:55:00
1:15 PM,37.8,20.7,50,29.84,10.0,West,11.5,18.4,N/A,,Clear,260,2014-01-06 18:15:00
1:35 PM,37.0,15.8,42,29.85,10.0,West,19.6,26.5,N/A,,Clear,260,2014-01-06 18:35:00
1:55 PM,36.5,14.5,41,29.86,10.0,West,18.4,29.9,N/A,,Clear,260,2014-01-06 18:55:00
2:15 PM,37.8,20.1,49,29.86,10.0,West,17.3,24.2,N/A,,Clear,280,2014-01-06 19:15:00
2:35 PM,35.6,15.4,44,29.89,10.0,WNW,16.1,25.3,N/A,,Scattered Clouds,290,2014-01-06 19:35:00
2:55 PM,35.1,15.1,44,29.89,10.0,WNW,11.5,19.6,N/A,,Scattered Clouds,300,2014-01-06 19:55:00
3:15 PM,34.0,13.3,43,29.90,10.0,WNW,16.1,24.2,N/A,,Clear,300,2014-01-06 20:15:00
3:35 PM,33.8,13.3,43,29.91,10.0,WNW,16.1,24.2,N/A,,Clear,290,2014-01-06 20:35:00
3:55 PM,32.0,10.2,40,29.93,10.0,NW,18.4,23.0,N/A,,Clear,310,2014-01-06 20:55:00
4:15 PM,31.3,9.5,40,29.94,10.0,WNW,13.8,23.0,N/A,,Clear,300,2014-01-06 21:15:00
4:35 PM,30.2,8.2,40,29.94,10.0,WNW,16.1,23.0,N/A,,Clear,290,2014-01-06 21:35:00
4:55 PM,28.4,5.4,38,29.95,10.0,WNW,20.7,26.5,N/A,,Clear,290,2014-01-06 21:55:00
5:15 PM,26.2,3.6,38,29.96,10.0,WNW,20.7,26.5,N/A,,Clear,300,2014-01-06 22:15:00
5:35 PM,24.6,3.0,40,29.99,10.0,WNW,18.4,24.2,N/A,,Clear,300,2014-01-06 22:35:00
5:55 PM,22.1,0.7,39,30.01,10.0,WNW,15.0,23.0,N/A,,Clear,290,2014-01-06 22:55:00
6:15 PM,20.7,-1.8,37,30.04,10.0,WNW,15.0,25.3,N/A,,Clear,300,2014-01-06 23:15:00
6:35 PM,18.5,-2.6,40,30.06,10.0,NW,16.1,26.5,N/A,,Clear,310,2014-01-06 23:35:00
6:55 PM,17.2,-2.6,42,30.08,10.0,WNW,11.5,20.7,N/A,,Clear,300,2014-01-06 23:55:00
7:15 PM,16.3,-5.1,39,30.09,10.0,WNW,15.0,23.0,N/A,,Clear,300,2014-01-07 00:15:00
7:35 PM,15.4,-6.2,38,30.11,10.0,NW,16.1,23.0,N/A,,Clear,310,2014-01-07 00:35:00
7:55 PM,14.4,-5.3,42,30.13,10.0,NW,11.5,18.4,N/A,,Clear,310,2014-01-07 00:55:00
8:15 PM,13.8,-6.0,41,30.15,10.0,NW,11.5,21.9,N/A,,Clear,310,2014-01-07 01:15:00
8:35 PM,13.1,-6.2,42,30.16,10.0,NW,11.5,20.7,N/A,,Clear,310,2014-01-07 01:35:00
8:55 PM,12.7,-5.8,43,30.17,10.0,NW,13.8,18.4,N/A,,Clear,310,2014-01-07 01:55:00
9:15 PM,12.2,-7.1,42,30.18,10.0,WNW,12.7,20.7,N/A,,Clear,290,2014-01-07 02:15:00
9:35 PM,11.8,-7.6,42,30.19,10.0,WNW,12.7,18.4,N/A,,Clear,300,2014-01-07 02:35:00
9:55 PM,10.9,-7.6,43,30.20,10.0,NW,8.1,19.6,N/A,,Clear,310,2014-01-07 02:55:00
10:15 PM,10.4,-7.6,44,30.20,10.0,WNW,5.8,-,N/A,,Clear,290,2014-01-07 03:15:00
10:35 PM,10.2,-7.2,45,30.21,10.0,NW,6.9,-,N/A,,Clear,310,2014-01-07 03:35:00
10:55 PM,9.9,-7.2,46,30.20,10.0,NW,6.9,-,N/A,,Clear,320,2014-01-07 03:55:00
11:15 PM,9.5,-6.0,50,30.20,10.0,NW,8.1,-,N/A,,Clear,310,2014-01-07 04:15:00
11:35 PM,9.3,-8.1,45,30.20,10.0,NW,9.2,16.1,N/A,,Clear,310,2014-01-07 04:35:00
11:55 PM,8.6,-8.3,46,30.22,10.0,NW,6.9,-,N/A,,Clear,310,2014-01-07 04:55:00